Regional Weather Roundup
Issued by NWS Green Bay, WI

Home | Current Version | Previous Version | Graphics & Text | Print | Product List | Glossary Off
Versions: 1 2 3 4 5 6 7 8 9 10 11 12 13 14 15 16 17 18 19 20 21 22 23 24 25 26 27 28 29 30 31 32 33 34 35 36 37 38 39 40 41 42 43 44 45 46 47 48 49 50

000
ASUS43 KGRB 270110
RWRGRB

NORTH-CENTRAL AND NORTHEAST WISCONSIN REGIONAL WEATHER ROUNDUP
NATIONAL WEATHER SERVICE GREEN BAY WI
800 PM CDT TUE AUG 26 2014

WIZ005-009-010>012-018-019-270200-
NORTH CENTRAL WISCONSIN

CITY           SKY/WX    TMP DP  RH WIND       PRES   REMARKS
IRONWOOD       NOT AVBL
MANITOWISH WTR PTCLDY    60  52  75 N5        30.14F
ARBOR VITAE    PTCLDY    62  53  74 CALM      30.14S
EAGLE RIVER    CLEAR     59  49  68 CALM      30.13S
LAND O LAKES   PTCLDY    57  50  76 N5        30.15S
RHINELANDER    CLEAR     61  53  75 N3        30.14S
PHILLIPS       CLOUDY    59  54  82 CALM      30.13F
ANTIGO         CLEAR     61  55  79 W3        30.13F
TOMAHAWK       CLEAR     57  54  87 CALM      30.14S
MERRILL        CLEAR     62  55  75 CALM      30.12S
$$

WIZ013-073-270200-
NORTHEAST WISCONSIN

CITY           SKY/WX    TMP DP  RH WIND       PRES   REMARKS
IRON MOUNTAIN  CLEAR     63  52  67 N7        30.10R
MARINETTE      CLEAR     64  55  72 CALM      30.08R
OCONTO         CLEAR     62  60  91 CALM      30.09S
$$

WIZ017-030-035>037-045-270200-
CENTRAL WISCONSIN

CITY           SKY/WX    TMP DP  RH WIND       PRES   REMARKS
MEDFORD        CLEAR     59  55  87 CALM      30.14S
WAUSAU         CLEAR     64  54  69 W5        30.11S
MOSINEE        CLEAR     64  54  68 W5        30.14S
MARSHFIELD     PTCLDY    62  55  77 NW7       30.13F
WISC RAPIDS    CLEAR     63  58  83 CALM      30.13F
STEVENS POINT  CLEAR     64  53  68 NW3       30.13S
WAUPACA        CLEAR     67  56  69 NW3       30.12R
SHAWANO        CLEAR     67  56  68 W5        30.11R
CLINTONVILLE   CLEAR     66  54  63 W3        30.10S
$$

WIZ038-039-048-051-270200-
FOX VALLEY

CITY           SKY/WX    TMP DP  RH WIND       PRES   REMARKS
NWS GREEN BAY  CLEAR     64  59  83 NW5       30.10R
APPLETON       PTCLDY    66  55  68 NW8       30.11R
OSHKOSH        CLEAR     68  57  68 NW7       30.10R
FOND DU LAC    CLEAR     67  61  81 CALM      30.10S
$$

WIZ022-050-052-270200-
EAST CENTRAL WISCONSIN

CITY           SKY/WX    TMP DP  RH WIND       PRES   REMARKS
STURGEON BAY   CLEAR     64  57  77 CALM      30.10R
MANITOWOC      CLEAR     68  61  78 CALM      30.09S
SHEBOYGAN      CLEAR     64  59  83 NW3       30.09S
$$

LMZ563-521-522-541>543-270200-
LAKESHORE

STATION/POSITION TIME  TEMP    WIND        PRES    VSBY  WAVE
                       AIR SEA DIR/SP/G                  HT/PER
                 (UTC) (F)     (DEG/KT/KT) (MB)    (MI)  (FT/S)
SHEBOYGAN LKSHOR 0100   71 65  310/  6/  7 1018.9R
KEWAUNEE LKSHORE 0100   69     300/  2/  2 1017.9R
TWO RIVERS CG    0000      75              1018.5      6   0
NORTHPORT PIER   0100   65     200/  2/  3 1018.6R
N MID LAKE BUOY  0100   66 66  240/  4/  6 1018.6R         0
S GREEN BAY BUOY 0100   71     VRB 10      1019.9R
STURGEON BAY CG  0000   67 64   90/  7     1019.2      6   1
CHAMBERS ISLAND  0100   65      CALM  /  3 1018.6S
MENOMINEE LKSHOR 0100   70     310/  3/  4 1019.1R
$$


USA.gov is the U.S. government's official web portal to all federal, state and local government web resources and services.